Wind_Speed
25 26 27 28 29 29 30 30 31 32 32 32 33 33 34 34 35 35 36 36 37 37 38 39 39 40 40 41 43 44 45 47 48 49 50 51 52 54 55 55 56 57 57 58 59 60 61 62 63 65 66 67 68 69 70 70 71 71 71 71 70 71 71 72 76 80 79 78 79 79 79 80 80 78 77 76 75 74 73 72 72 73 72 71 71
27 27 28 29 30 30 31 31 31 32 32 33 33 33 34 34 35 36 37 37 38 38 39 39 39 40 41 42 43 44 45 46 47 47 48 49 50 51 52 53 54 55 55 56 57 59 60 61 63 65 66 67 68 69 69 69 70 70 70 69 69 68 68 68 70 74 77 77 77 78 78 79 80 78 78 77 76 74 73 71 71 72 73 73 72
28 28 29 30 30 31 31 31 32 32 33 33 33 34 35 36 37 37 38 39 39 39 40 40 41 42 42 43 44 44 44 45 46 47 47 49 49 50 51 52 53 54 55 56 57 58 59 61 62 63 64 65 66 65 66 66 66 67 67 66 67 66 65 64 65 68 72 74 75 75 75 76 78 77 76 76 76 75 73 72 70 70 71 71 72
28 29 30 30 31 31 31 32 32 33 33 34 35 35 36 37 38 39 39 40 40 40 41 42 43 43 44 44 44 44 45 45 46 47 48 49 50 51 51 52 53 54 55 56 57 58 59 60 60 61 62 63 63 62 62 63 63 63 64 63 63 63 62 62 62 62 64 69 71 71 70 71 73 73 73 73 74 73 72 71 69 69 68 68 69
29 30 30 31 31 31 32 32 33 34 34 35 36 37 38 39 39 40 40 40 41 42 43 44 44 45 45 45 45 46 46 47 48 49 49 50 51 52 53 53 54 55 56 56 57 57 58 58 59 59 60 60 60 60 60 59 60 60 61 60 60 60 60 59 59 58 59 62 65 66 66 67 68 68 66 67 70 71 70 69 68 67 67 66 66
30 30 31 31 32 32 32 33 33 34 35 36 37 38 38 39 39 40 41 41 42 43 44 45 45 46 46 46 47 47 48 49 50 50 51 51 52 52 53 54 55 56 56 56 56 57 57 57 57 58 58 58 57 57 57 57 57 58 58 58 58 58 58 58 58 57 57 58 60 62 62 62 63 63 61 60 63 66 67 68 67 66 66 65 66
30 30 31 32 32 32 33 33 34 35 35 36 37 38 38 39 39 40 41 42 43 44 45 45 46 46 47 47 48 48 49 50 51 51 52 52 52 53 53 54 55 55 56 55 55 56 56 56 56 57 57 57 56 56 56 56 56 55 55 55 55 56 56 56 56 56 56 57 57 58 59 58 58 58 57 56 57 59 60 63 64 64 64 65 64
30 31 31 32 32 32 33 34 34 35 36 36 37 38 38 39 40 41 42 43 44 45 45 46 46 47 47 48 48 49 50 51 51 51 51 51 51 52 52 53 54 55 55 55 54 55 54 54 55 55 55 55 54 54 54 54 54 53 53 52 52 53 53 54 54 55 55 56 56 57 57 56 55 55 55 55 55 56 55 57 59 60 61 62 62
31 31 31 31 32 32 33 34 35 36 36 37 37 38 38 39 40 41 43 44 45 46 46 47 47 48 48 48 48 49 49 50 50 50 50 50 50 51 52 53 54 54 54 54 53 53 53 53 53 53 53 52 52 52 52 52 51 51 50 49 49 50 51 52 52 53 54 55 55 55 55 54 53 53 54 54 54 56 55 54 56 56 56 58 58
31 31 31 31 32 33 34 35 36 36 37 37 37 38 39 40 41 42 43 44 45 46 47 47 48 48 48 48 47 47 48 48 48 48 48 48 49 50 52 52 53 53 53 52 52 51 51 51 51 51 51 50 50 50 50 50 49 49 48 48 48 48 49 50 51 52 53 54 54 54 54 54 53 52 53 53 54 55 55 54 55 54 54 55 56
31 31 31 32 33 34 35 36 37 37 37 38 38 39 40 41 42 43 44 45 46 46 47 47 47 48 48 47 47 46 46 46 46 46 46 46 47 49 50 51 51 51 51 51 50 50 50 50 50 51 50 50 50 49 49 49 49 48 48 47 46 47 48 50 51 51 52 53 53 52 53 54 53 52 52 53 53 53 53 53 53 53 53 54 55
30 31 32 33 35 36 37 37 37 38 38 38 38 39 40 41 43 43 44 45 45 46 46 47 47 47 47 47 46 45 45 45 44 44 44 44 46 48 49 50 50 50 50 50 50 50 50 50 51 51 51 51 51 50 49 49 49 48 48 47 46 46 47 48 49 50 51 52 52 52 52 53 53 52 51 53 53 53 53 52 51 52 52 51 52
30 32 33 35 36 37 37 38 38 38 38 38 39 40 41 42 43 44 45 45 46 46 47 47 47 47 47 46 45 44 43 43 43 43 43 44 45 48 49 49 49 49 49 49 49 50 50 51 51 51 51 52 51 51 50 50 49 49 49 48 47 47 47 48 49 49 50 51 52 52 51 51 52 51 50 51 53 53 53 52 50 50 51 50 49
32 33 35 36 37 38 38 38 37 38 38 38 39 40 42 43 44 45 45 46 47 47 47 47 47 46 46 45 44 43 42 42 42 42 43 44 46 48 49 49 48 49 49 49 49 49 50 50 50 50 51 51 52 51 51 51 50 50 50 50 49 49 50 50 50 49 49 49 50 51 50 49 50 51 50 50 52 53 53 53 51 51 51 49 47
33 35 36 37 38 38 38 38 38 38 38 39 40 41 43 44 45 46 46 47 47 48 48 47 47 46 45 44 43 42 41 41 42 43 44 45 47 48 48 48 48 48 48 48 49 49 49 49 49 50 50 51 51 51 51 50 50 50 51 51 50 51 52 52 51 50 49 49 49 49 48 48 49 50 50 50 51 52 52 52 51 52 52 50 47
34 36 37 38 38 38 38 38 38 38 39 40 41 42 43 45 46 46 47 47 47 48 48 47 46 45 45 44 43 42 41 41 42 43 45 46 47 48 47 47 47 47 47 48 48 49 49 50 49 49 50 50 50 50 50 49 49 51 51 51 51 52 53 52 51 50 50 50 49 48 48 48 49 50 50 50 51 51 51 51 50 51 52 50 47
36 37 37 38 39 38 38 38 39 39 40 41 41 42 44 45 46 47 47 47 47 47 47 47 46 45 45 44 43 42 41 41 43 44 45 46 47 47 47 47 47 47 47 48 49 49 50 50 50 50 50 50 50 50 49 48 49 51 52 52 53 52 51 50 50 51 52 51 49 48 48 48 48 49 49 49 50 50 51 51 50 50 51 51 49
37 37 37 38 39 38 38 39 39 40 41 41 42 43 44 46 47 47 47 47 47 47 47 47 46 45 45 44 44 43 42 42 44 45 45 45 46 47 47 47 48 48 48 49 49 50 50 50 51 51 51 51 50 50 50 49 50 52 53 53 53 51 50 50 51 53 53 52 50 49 49 48 48 48 49 48 48 49 50 50 49 49 49 49 49
38 37 37 38 38 38 38 39 40 41 42 42 43 44 45 46 47 47 48 48 48 47 47 47 46 44 44 43 43 43 43 43 44 45 45 45 46 47 48 48 48 48 49 50 50 51 51 51 51 51 51 51 50 50 50 49 50 52 54 53 52 52 51 52 54 55 54 53 52 52 51 50 49 49 48 49 49 49 50 50 50 49 49 48 48
37 36 37 38 38 38 39 40 41 42 42 43 43 44 45 46 47 47 48 48 48 47 47 47 46 44 43 43 43 43 44 44 44 44 44 44 46 47 48 49 49 49 50 51 51 52 52 52 52 51 51 51 50 50 50 49 49 51 52 51 51 52 53 55 56 55 54 54 54 53 53 52 51 50 49 49 49 49 49 50 50 50 50 49 48
36 36 37 37 38 38 39 40 41 42 43 43 44 45 46 47 47 48 48 48 47 47 46 46 45 44 43 43 43 43 44 45 44 43 44 44 46 47 49 49 50 50 51 52 53 53 53 53 52 52 52 52 51 51 50 49 49 50 49 49 50 51 53 55 56 55 55 55 54 53 53 52 51 50 49 48 48 49 48 48 49 49 49 49 48
36 36 37 37 37 38 40 41 41 42 43 44 44 45 46 47 47 48 48 48 47 47 46 46 45 44 42 42 43 44 44 45 44 43 43 44 45 47 49 49 50 51 52 53 53 54 54 54 54 54 53 53 52 50 50 50 50 50 49 49 50 51 52 54 54 54 55 54 53 53 52 51 50 49 48 47 47 48 48 48 48 48 49 49 49
36 36 37 37 38 39 40 41 42 43 44 44 45 46 47 47 48 48 48 48 48 47 46 45 45 44 43 42 43 44 44 44 44 44 44 45 46 47 48 49 50 51 53 54 54 54 55 55 55 54 54 53 51 50 50 50 51 50 50 50 50 51 52 53 53 54 54 53 52 52 50 50 49 48 47 46 46 46 47 47 47 48 48 49 49
36 36 36 37 38 39 40 41 42 43 44 45 46 46 47 47 47 47 48 48 48 46 45 44 44 44 44 44 44 44 45 44 44 45 45 46 47 48 49 50 50 51 53 54 54 54 55 55 55 54 54 53 51 50 51 51 51 51 50 50 50 50 51 51 52 52 52 51 51 50 49 48 48 47 47 46 45 45 45 46 47 47 48 48 49
35 35 36 37 38 39 41 42 43 44 45 45 46 47 47 47 47 47 47 48 47 46 44 44 44 45 45 46 45 45 45 45 45 46 47 48 49 49 50 51 51 52 53 54 54 55 56 56 56 55 54 52 52 52 52 52 52 51 51 50 51 51 51 51 51 51 51 51 50 49 48 47 47 47 46 45 45 44 44 44 45 45 46 47 48
35 35 36 37 38 40 41 42 43 44 45 46 47 47 47 47 47 46 47 47 46 45 44 44 44 45 46 47 47 47 47 46 46 47 48 50 50 51 52 53 53 54 55 56 56 57 58 58 58 56 55 55 55 55 55 54 54 54 53 52 52 52 52 52 52 52 51 50 50 48 47 46 46 45 45 45 44 43 43 43 44 44 44 46 47
34 35 36 37 39 40 41 43 44 44 45 46 47 47 47 47 47 46 46 46 45 44 44 44 44 46 47 48 49 48 48 47 48 49 51 52 53 54 55 56 57 58 58 59 59 60 60 59 59 58 58 58 58 57 56 56 55 55 54 53 52 52 52 52 52 51 51 50 49 48 46 46 45 44 44 44 43 42 42 42 43 42 43 44 45
34 35 36 38 39 41 42 43 44 44 45 46 47 47 47 47 47 46 45 45 44 43 43 44 45 47 48 49 49 50 49 49 50 51 53 55 56 57 58 59 59 60 59 60 61 62 60 59 59 59 59 59 58 57 56 56 55 54 53 53 52 51 50 50 49 49 48 48 47 46 45 44 44 44 43 43 42 41 41 42 42 42 42 42 43
35 35 36 38 40 41 42 43 44 44 45 46 46 46 47 47 47 46 44 44 44 43 43 44 45 47 49 50 51 51 51 51 52 53 55 56 58 58 59 59 60 60 59 60 62 61 59 58 59 59 59 59 59 58 57 56 55 54 53 52 51 50 49 48 47 46 45 44 44 44 43 43 42 42 42 42 41 41 40 41 41 41 41 41 42
35 35 37 38 40 42 43 43 44 45 45 46 46 46 46 46 46 45 44 42 42 42 43 44 46 48 50 51 51 53 54 54 54 54 56 57 58 58 59 59 59 59 60 61 62 61 59 60 60 59 59 60 59 59 58 57 56 55 54 52 51 49 48 47 46 45 43 42 42 41 41 41 41 41 41 41 40 39 39 40 40 40 40 40 40
35 36 37 39 41 42 42 43 44 45 45 46 46 46 45 44 44 44 44 43 41 42 43 44 46 48 50 51 52 53 54 55 56 56 57 57 58 58 58 59 59 60 60 61 61 61 61 61 61 60 60 60 60 59 59 58 57 56 54 52 50 49 47 46 45 44 42 41 40 39 40 40 40 40 40 40 40 39 38 38 38 38 39 39 39
35 36 38 39 41 42 43 43 44 45 45 46 46 46 45 43 42 42 42 42 42 42 43 45 46 48 49 51 52 53 54 55 56 57 58 58 58 58 58 59 60 60 60 60 61 61 61 61 61 61 60 60 59 59 58 57 56 55 54 52 50 48 46 45 44 42 41 40 39 38 38 39 39 39 39 39 39 39 38 37 37 37 37 36 36
36 37 38 40 41 42 42 43 44 45 45 45 46 45 45 44 42 40 39 40 41 41 42 44 46 47 48 50 52 54 55 56 57 57 57 57 57 58 59 60 60 59 60 61 61 61 61 61 61 60 60 59 59 58 57 56 55 54 53 51 49 47 45 43 42 41 40 39 38 38 38 38 38 38 38 38 38 38 38 37 37 37 36 35 35
36 37 38 40 41 42 43 43 44 44 45 45 45 45 45 44 43 41 40 39 39 40 41 42 44 46 47 49 51 54 55 56 57 57 57 58 58 59 59 60 59 59 59 60 60 60 60 60 59 59 58 58 57 56 55 54 53 52 50 49 47 45 43 41 40 39 38 38 37 37 37 37 36 37 37 37 37 37 36 36 37 36 35 34 34
36 37 39 40 41 42 43 43 44 44 45 45 45 45 44 44 43 42 42 41 41 41 42 43 44 46 47 49 52 54 55 56 56 57 57 58 59 60 60 61 60 60 59 59 59 59 59 58 57 56 56 56 55 54 53 51 50 49 48 47 45 43 41 39 38 37 37 36 36 35 35 35 35 35 36 37 36 36 36 35 35 35 34 33 33
37 38 39 40 41 42 42 43 44 44 44 45 45 44 44 43 43 42 42 42 43 44 44 44 45 47 49 51 53 54 55 55 56 56 57 58 59 60 61 61 61 61 60 59 59 58 57 56 55 54 53 52 51 50 50 49 47 46 45 44 43 41 40 38 36 35 35 35 34 34 34 33 33 34 35 35 35 36 36 35 34 33 32 32 32
37 38 40 40 41 42 42 43 44 44 44 44 44 44 43 42 42 42 42 42 44 45 46 46 47 48 50 51 53 54 54 54 55 55 56 57 57 58 59 60 61 61 60 59 58 57 56 54 53 52 50 49 48 47 46 46 45 44 42 41 40 39 38 36 35 35 34 34 33 32 32 32 32 32 33 34 35 35 35 34 33 32 31 31 31
37 39 40 40 41 41 42 43 43 44 44 44 44 43 43 42 42 41 42 43 44 45 46 47 48 49 51 52 53 53 54 54 54 54 55 56 56 58 59 59 60 59 59 57 56 55 54 52 51 50 49 47 45 44 44 43 42 41 39 38 37 36 35 34 33 33 34 33 32 32 31 31 31 31 32 33 34 34 34 33 32 32 30 29 29
38 39 39 40 41 42 42 43 43 43 43 43 43 42 42 41 41 41 42 43 45 46 47 48 49 50 51 52 52 53 53 53 53 54 55 56 57 58 59 59 59 58 57 56 54 53 52 51 49 47 46 45 43 42 41 41 40 38 37 35 34 33 33 32 32 32 32 32 31 30 30 30 30 30 30 31 32 33 33 32 31 31 30 29 28
38 39 39 40 41 41 42 43 43 43 43 43 42 42 41 40 40 41 42 44 45 46 47 48 49 50 51 51 52 52 52 52 53 54 55 57 57 58 59 59 59 58 56 54 53 51 50 48 47 46 44 43 41 40 39 39 38 36 34 33 32 32 31 30 30 31 31 30 29 29 29 29 29 28 28 29 31 32 32 31 30 30 29 29 28
38 38 39 40 41 41 42 43 43 43 43 43 42 41 40 40 40 41 42 44 45 46 47 48 48 49 50 50 50 50 51 52 53 54 55 56 57 57 57 57 57 56 54 53 52 50 48 46 45 43 42 41 39 38 38 37 36 35 33 31 30 30 29 29 29 29 29 28 28 27 27 28 28 27 27 28 29 30 30 30 29 29 28 27 28
37 38 39 40 41 42 42 42 43 43 43 42 41 40 39 39 40 41 42 43 44 45 47 47 48 48 48 48 48 49 50 51 52 53 54 55 55 56 56 55 54 53 52 52 50 49 47 44 42 41 40 39 38 37 36 36 35 33 32 30 29 28 28 27 27 27 27 26 26 26 26 26 26 26 27 27 28 28 29 29 28 27 27 26 26
37 38 39 40 41 41 42 42 42 42 42 41 39 39 38 39 40 41 42 42 44 45 46 46 46 46 45 46 46 47 48 49 51 52 53 54 54 54 54 53 52 51 50 49 48 47 45 43 41 39 38 38 37 36 35 34 34 33 31 30 28 27 27 26 26 26 26 25 25 25 25 25 25 25 25 26 27 27 27 27 27 26 26 25 25
37 37 38 40 40 41 41 41 42 41 40 39 37 37 37 38 39 40 41 42 43 44 45 44 44 43 43 44 45 46 47 48 50 51 52 52 52 52 52 51 50 49 48 47 46 44 43 41 39 38 37 36 35 35 34 33 33 32 31 30 28 27 26 26 25 25 25 25 24 24 24 23 23 23 23 24 25 25 25 25 25 25 24 24 23
36 37 38 39 40 41 41 41 41 40 39 37 36 36 37 38 39 40 41 42 42 43 42 42 41 41 42 43 44 45 46 48 49 50 51 51 51 51 50 50 49 48 47 45 44 42 41 39 38 37 36 34 33 33 32 31 31 31 30 30 28 27 26 26 25 25 25 25 24 23 23 22 21 22 22 23 24 24 24 24 24 24 23 22 22
36 38 38 39 40 40 41 41 40 39 37 36 36 36 37 38 39 39 40 41 42 41 41 40 40 40 41 42 43 44 45 47 48 49 49 50 50 49 49 48 47 47 45 44 42 40 39 38 37 36 35 34 32 32 31 30 29 28 28 28 28 27 26 26 25 25 25 25 24 24 23 22 21 21 21 22 22 23 22 22 22 22 22 21 21
37 37 38 39 40 40 40 40 39 38 36 35 35 36 36 37 38 39 40 40 40 40 39 38 38 39 40 41 42 43 44 46 47 48 48 48 48 48 47 47 46 45 44 42 40 39 37 37 36 35 34 33 32 31 30 28 27 27 27 27 27 26 26 25 25 25 25 24 24 24 23 22 21 20 20 21 21 21 21 21 21 21 20 20 19
37 38 38 39 39 40 40 39 37 36 35 34 34 35 35 36 37 38 38 38 38 37 37 37 37 38 39 40 41 42 43 45 46 46 47 47 47 47 46 46 45 44 43 41 38 37 36 35 35 34 33 32 32 30 29 28 27 26 26 26 25 25 25 25 25 25 24 24 23 23 23 22 21 20 20 20 21 21 20 20 20 19 19 18 18
37 38 38 38 39 39 38 37 36 34 33 33 34 34 34 35 36 36 36 36 35 35 35 35 36 37 38 39 40 41 43 44 45 45 46 46 46 46 45 45 44 43 42 39 37 36 35 34 34 33 32 32 31 30 28 27 26 26 25 25 24 24 24 24 24 24 24 23 22 22 22 21 21 20 20 20 20 20 20 20 20 19 18 17 16
37 37 38 38 38 38 37 36 34 33 33 33 33 33 34 35 35 35 35 34 33 33 33 34 35 36 37 38 39 40 42 43 44 44 45 45 45 45 44 44 43 42 40 38 36 35 34 34 33 32 31 31 30 29 28 27 26 26 25 24 24 23 23 23 23 23 23 23 22 22 22 21 20 20 19 19 20 20 20 20 19 18 17 16 15
37 37 37 37 37 37 36 35 33 32 32 32 32 33 33 34 34 34 33 32 31 32 32 33 34 35 36 37 38 39 40 41 42 43 44 44 44 44 43 43 42 41 39 38 35 34 33 33 32 31 30 30 29 28 27 26 26 25 25 24 24 23 22 22 21 21 22 21 21 21 21 21 20 19 19 19 19 18 18 18 18 17 16 15 15
Wind_Direction
282 285 287 290 292 295 297 298 299 299 299 300 299 300 300 300 301 303 304 306 307 308 308 309 310 310 311 312 313 314 314 314 314 315 315 316 316 317 317 317 317 316 316 315 314 313 312 312 310 309 308 307 305 302 300 298 296 295 294 293 292 292 292 292 291 288 285 283 284 284 284 285 286 284 282 280 278 277 276 275 274 272 271 269 267
285 288 291 294 296 297 297 298 298 299 299 300 300 301 303 304 306 308 309 310 310 309 309 310 310 311 312 313 314 314 314 314 315 315 316 317 317 317 317 317 316 316 315 314 313 312 311 310 309 307 306 305 303 301 300 298 298 297 296 296 296 295 295 295 294 292 289 285 283 283 282 284 286 286 284 283 281 278 276 275 273 272 271 270 268
288 291 293 295 295 296 297 298 299 300 301 302 304 306 308 310 311 312 312 311 310 310 310 311 313 314 314 314 314 314 314 315 316 316 317 317 317 317 317 316 316 316 315 314 313 311 310 309 308 306 305 303 302 301 300 300 300 299 299 299 299 299 299 299 298 297 296 292 288 287 285 284 285 288 289 288 286 283 281 279 277 273 271 270 269
291 293 293 294 295 297 299 300 301 302 304 306 309 311 312 313 313 312 311 310 310 311 313 314 315 315 315 315 315 315 316 317 317 318 318 318 318 318 317 317 317 317 316 315 314 312 311 310 308 306 305 304 303 303 303 303 302 302 301 301 301 301 301 301 301 301 300 298 295 293 292 289 288 289 292 292 290 289 287 285 283 280 276 273 271
292 292 293 295 297 299 300 302 303 306 308 311 312 313 313 313 311 311 310 311 312 314 316 316 316 316 316 317 318 318 318 319 319 319 318 318 318 318 319 319 318 318 317 316 315 313 312 310 309 307 306 306 305 305 305 304 304 303 303 303 303 302 302 302 302 302 302 302 300 298 297 295 293 292 295 296 293 291 290 290 288 286 282 278 275
292 293 295 297 299 300 302 304 306 309 311 312 312 312 311 310 310 310 312 314 315 317 317 317 318 318 318 319 319 319 319 319 319 319 319 319 319 319 319 320 319 319 318 317 315 313 312 311 310 309 308 308 308 307 306 305 304 304 304 304 304 303 303 303 304 304 304 304 304 303 301 300 299 298 299 300 299 295 294 293 291 290 288 285 281
292 294 296 298 299 301 303 306 308 310 310 309 309 308 308 309 311 313 314 316 317 318 318 318 318 318 319 319 319 319 319 319 319 319 319 319 319 319 320 320 319 319 318 316 315 313 312 311 310 309 309 309 309 308 307 306 306 306 306 305 305 305 305 305 305 306 306 305 305 305 304 304 304 303 302 303 303 301 299 298 295 292 291 289 287
293 295 296 297 298 301 304 306 307 307 306 306 306 307 309 311 314 316 317 318 318 318 318 318 318 318 319 319 319 319 319 319 319 319 318 318 319 319 319 319 319 318 317 315 314 312 311 310 309 309 309 309 309 309 308 307 307 307 307 306 306 306 305 305 306 305 305 305 305 305 306 307 307 307 306 306 305 304 303 302 300 298 295 293 292
291 292 293 295 299 302 304 304 303 304 305 305 307 309 312 315 317 318 318 318 319 318 318 319 318 319 319 319 319 318 318 318 317 317 317 317 318 318 318 319 318 317 316 315 313 311 310 309 308 308 307 308 308 307 307 307 307 307 307 307 306 306 305 305 304 304 305 304 305 306 307 307 307 308 308 308 307 306 306 305 303 302 300 298 296
289 290 293 297 301 302 302 302 303 304 305 307 309 313 316 318 318 319 319 319 319 319 318 318 318 318 318 318 317 317 316 316 316 316 316 317 317 318 318 318 317 316 315 313 312 311 310 309 308 308 308 307 307 307 306 306 306 306 306 307 306 305 304 303 303 303 303 303 305 307 307 306 306 307 308 308 307 306 306 305 305 304 303 301 298
287 291 296 299 301 301 302 303 304 305 307 310 313 316 318 318 318 319 319 319 318 318 318 318 317 317 317 317 317 316 315 315 315 316 316 316 316 317 317 316 315 314 313 313 312 311 311 310 310 310 309 309 308 308 307 306 306 305 305 305 305 304 303 302 302 302 302 303 305 306 305 305 305 305 305 306 306 305 305 305 306 306 306 304 302
290 296 300 301 302 303 303 304 305 306 309 313 316 318 318 318 318 318 318 318 318 318 317 317 317 317 317 317 316 316 315 315 316 316 316 316 315 315 315 315 314 314 313 313 313 312 312 312 312 311 311 310 310 309 308 307 306 305 304 304 303 302 301 300 300 300 302 303 304 303 303 304 304 304 305 305 305 304 304 305 306 307 306 306 306
296 300 301 302 303 303 303 303 305 308 312 316 318 318 318 318 318 318 318 318 318 318 317 317 317 317 317 316 316 316 315 315 316 316 316 315 314 313 314 314 314 314 314 314 314 313 313 313 312 312 311 311 310 309 308 307 306 305 304 303 302 301 300 298 298 299 301 303 302 302 303 304 304 304 304 304 304 304 304 304 305 306 306 306 307
299 300 300 301 302 302 302 304 307 311 315 316 317 318 318 318 318 318 318 318 318 318 317 317 316 316 317 317 317 317 316 316 316 315 315 314 313 313 314 314 315 315 315 315 314 314 313 313 313 313 312 311 311 310 309 308 307 306 305 304 303 302 300 299 299 301 302 302 301 301 303 304 304 303 303 304 304 304 304 304 305 304 304 305 307
298 299 299 300 301 301 303 306 310 313 315 316 317 318 318 318 318 318 319 318 318 317 317 317 317 317 317 317 317 317 316 315 315 315 315 314 314 314 315 315 315 315 315 314 314 314 314 314 313 313 313 312 311 311 310 309 307 305 305 305 303 301 300 301 302 303 302 300 300 302 303 304 303 303 304 303 303 302 303 303 303 303 302 303 305
297 297 298 299 300 301 304 308 311 313 315 316 318 319 318 318 318 318 318 318 317 317 317 317 317 318 317 317 317 316 316 315 316 316 316 315 315 315 315 315 315 315 315 314 314 314 314 314 314 313 313 312 312 311 310 309 307 305 305 304 302 301 302 303 303 302 299 298 300 302 302 301 301 301 302 301 301 301 300 300 300 301 301 301 302
296 296 298 299 299 302 306 309 311 313 315 316 318 318 318 318 317 317 317 317 317 317 317 318 318 318 318 317 316 317 317 317 317 317 317 316 315 315 315 314 314 315 315 315 315 315 314 314 314 313 313 312 312 311 310 308 307 306 305 304 304 304 305 303 300 297 296 296 299 300 299 298 298 298 298 298 299 299 298 298 298 298 298 299 300
294 296 298 298 300 304 307 310 312 313 315 317 318 318 317 317 317 317 317 317 317 318 318 319 318 318 317 317 316 317 318 318 318 317 317 316 315 315 315 314 315 315 315 315 315 315 314 314 313 313 312 312 311 310 310 308 307 305 304 305 306 306 304 301 298 296 296 296 296 295 294 295 295 295 295 296 296 296 296 296 296 296 296 297 298
293 296 298 298 301 306 308 310 312 314 315 317 318 317 316 316 316 317 317 317 318 318 319 319 318 317 317 316 316 317 318 319 318 317 317 316 315 315 315 315 315 316 316 315 315 314 314 314 313 312 312 311 310 310 309 308 307 305 306 307 307 305 302 300 297 297 298 298 296 294 293 293 293 293 294 294 295 295 295 296 296 296 296 296 297
293 297 297 299 303 306 308 310 312 314 316 317 317 316 315 315 316 317 317 318 318 319 319 318 318 317 316 316 317 317 318 318 318 317 317 317 316 316 315 315 316 316 316 315 315 314 314 314 313 312 311 310 310 309 309 308 307 306 307 307 305 302 300 298 298 299 299 298 297 296 296 295 294 293 293 293 293 293 294 294 295 295 295 295 295
295 297 297 300 304 306 308 310 312 314 315 316 316 315 315 316 316 317 318 318 319 319 318 317 317 317 316 316 317 318 318 318 318 317 317 317 316 316 316 316 316 316 316 315 315 314 314 313 312 311 311 310 310 310 309 307 305 304 304 303 301 300 299 298 299 299 298 297 297 297 297 297 296 294 293 291 291 291 291 292 293 294 294 295 294
295 296 298 301 304 306 308 310 312 313 314 315 315 315 315 316 317 318 318 319 319 319 318 317 317 316 316 316 317 317 317 317 317 317 317 317 316 316 316 317 317 316 315 315 314 314 313 313 312 311 311 311 310 310 308 305 303 302 302 301 300 299 298 299 299 298 297 297 297 296 296 296 296 295 293 291 289 289 290 290 291 292 293 293 294
295 296 299 301 304 306 308 310 312 313 314 314 314 315 316 317 318 318 319 319 318 318 317 316 316 316 316 316 316 317 317 316 316 317 317 316 316 315 316 316 316 315 314 314 314 313 312 311 310 310 310 311 311 309 307 304 303 302 302 301 300 299 299 298 298 297 297 297 296 295 295 295 296 296 295 294 292 290 290 289 290 290 291 291 292
294 296 299 301 304 306 308 310 312 313 313 314 314 315 316 317 318 319 319 318 318 317 317 316 316 316 315 315 316 316 316 316 317 317 316 316 315 315 315 316 315 314 314 313 312 311 310 309 309 310 311 312 311 308 305 304 303 303 302 301 300 299 298 298 297 297 297 297 296 296 296 296 297 297 297 297 296 294 292 290 289 289 289 289 290
294 296 299 301 304 306 308 310 311 312 313 313 314 315 317 317 318 319 318 318 317 317 317 316 315 315 315 315 316 316 316 317 317 316 316 315 314 315 315 314 314 313 312 312 311 311 310 310 311 313 313 311 309 306 305 305 305 304 303 303 302 302 301 300 300 299 299 298 298 298 298 298 297 297 297 297 297 296 294 292 289 288 287 287 287
295 297 299 302 304 306 308 309 310 311 312 313 314 316 317 318 318 318 318 317 316 317 316 316 315 315 314 315 315 316 316 317 317 316 315 314 314 314 314 314 314 314 313 313 313 312 311 312 314 314 313 310 309 308 307 307 307 306 306 305 305 304 304 303 302 302 301 300 299 298 298 298 297 297 297 297 297 298 297 294 292 290 288 287 285
294 296 299 302 303 305 307 308 310 311 312 313 315 316 317 317 318 318 317 316 316 316 316 315 315 314 314 315 316 316 316 316 316 315 314 314 314 315 316 316 316 316 315 315 313 312 313 315 316 314 311 310 309 309 308 308 307 306 305 305 304 304 303 302 302 302 301 300 299 299 298 298 297 297 297 297 298 299 299 297 295 293 290 288 286
294 297 300 302 303 304 306 308 310 311 312 313 315 316 316 317 317 317 317 316 316 316 315 315 314 314 314 315 315 315 315 315 315 316 316 316 317 318 318 318 316 316 315 314 312 313 315 315 313 310 309 309 308 307 306 305 304 303 303 302 302 301 301 300 300 300 299 299 298 298 298 298 297 298 297 297 298 299 300 299 297 295 293 290 288
294 297 299 300 302 304 306 308 310 311 312 313 314 315 316 316 317 317 316 316 316 315 315 314 314 313 313 314 314 314 315 316 317 317 317 318 318 318 317 316 315 314 313 312 311 313 314 311 309 308 308 307 306 305 304 303 302 302 301 301 300 300 299 299 298 298 297 297 297 297 297 297 296 297 297 297 298 299 300 299 298 296 294 291 290
294 297 299 300 301 303 306 308 309 310 311 313 314 314 315 316 316 316 315 315 314 314 314 314 313 313 314 314 315 315 316 317 318 318 317 317 317 316 315 315 313 312 312 311 311 312 311 309 308 308 307 305 305 304 303 302 302 301 300 300 300 300 299 299 299 298 298 297 297 297 297 297 296 297 297 297 298 299 299 299 298 297 294 293 292
295 297 298 299 300 303 305 307 308 310 311 312 313 314 315 316 316 315 315 315 314 313 313 313 313 314 314 315 315 315 316 316 316 316 316 316 315 315 314 313 312 312 312 311 311 310 309 308 308 307 305 305 304 303 302 302 301 300 300 300 300 300 299 299 299 299 298 298 297 297 296 296 296 297 297 297 298 299 299 299 299 297 295 295 294
293 295 297 298 300 303 305 307 308 309 311 312 313 314 316 316 315 314 313 314 313 313 314 314 314 314 314 314 314 314 314 315 315 315 315 315 315 314 313 312 312 312 312 310 310 309 309 308 307 306 305 304 303 302 301 301 301 300 300 300 300 300 300 300 300 300 299 299 298 297 297 297 297 297 298 299 299 300 301 301 300 298 296 296 296
292 294 296 297 300 302 304 306 307 309 310 312 313 315 316 316 315 313 312 311 312 312 313 313 313 313 313 313 312 312 313 314 314 314 315 314 314 313 312 312 312 312 311 310 310 309 308 307 306 306 305 303 303 302 301 301 301 301 300 300 300 300 300 300 300 300 300 299 299 298 298 297 298 298 298 299 301 302 302 302 301 299 298 298 297
292 294 295 297 300 302 304 306 307 309 311 312 314 315 315 315 315 313 311 310 310 311 311 311 311 311 312 311 311 311 313 313 314 314 315 314 314 313 313 313 313 312 311 310 310 309 308 307 306 306 304 304 303 302 302 301 301 300 300 300 300 300 300 300 300 300 299 299 298 298 298 298 298 298 298 299 301 302 303 302 301 300 300 299 298
291 293 295 297 300 302 304 305 307 309 311 313 314 315 315 314 314 312 311 311 311 311 311 311 311 311 311 311 311 312 313 314 315 315 315 315 314 314 314 314 314 313 312 311 310 309 308 308 307 306 305 304 303 303 302 302 301 301 300 300 300 300 300 300 300 299 298 298 297 297 297 297 298 298 298 300 302 303 303 303 302 302 302 301 300
291 293 294 297 299 302 304 306 308 310 312 313 314 314 314 313 312 311 311 311 311 312 312 312 312 312 312 312 313 314 314 315 315 316 316 315 315 315 315 315 314 314 313 312 311 311 310 309 308 307 306 305 304 303 302 302 301 301 301 301 300 300 300 301 300 299 298 297 297 298 298 298 298 298 299 301 303 305 305 304 304 304 304 303 303
290 292 294 297 299 301 304 306 308 310 311 313 314 314 313 312 311 310 311 311 312 313 313 313 313 313 313 314 314 315 315 316 316 316 316 316 316 316 315 315 315 315 314 314 313 313 312 311 310 308 307 306 304 303 303 302 302 302 302 302 302 302 301 301 301 300 298 298 299 299 299 298 298 299 300 302 304 304 305 305 305 305 305 304 304
289 291 294 297 299 302 304 307 308 310 311 313 313 313 312 311 310 310 310 311 312 313 313 313 314 314 314 315 315 315 316 317 317 317 317 317 317 317 317 317 316 316 316 316 316 315 314 313 312 310 309 307 306 305 304 303 303 304 304 304 303 303 303 302 301 300 300 300 300 300 300 299 298 299 300 303 304 305 305 306 306 305 305 304 304
288 290 294 297 300 302 305 307 308 310 311 312 312 312 311 310 309 310 311 312 313 313 313 314 315 315 315 315 316 316 317 318 318 319 319 319 319 319 319 319 318 318 319 318 318 317 316 315 313 312 310 309 308 307 306 305 305 306 307 306 305 304 304 303 301 300 299 300 301 301 300 299 298 299 301 303 304 305 306 307 307 306 306 306 306
288 291 294 297 300 303 306 307 309 310 311 312 312 311 309 309 309 310 311 312 313 313 314 315 315 315 316 316 317 318 319 320 320 321 322 322 321 321 321 321 321 321 321 320 319 318 317 316 315 313 311 310 310 308 307 307 307 308 308 308 306 306 306 305 303 302 301 302 302 302 301 299 299 300 302 304 305 305 307 308 308 308 307 307 307
288 292 295 298 301 304 306 307 309 311 311 311 311 309 308 309 309 310 312 312 313 314 315 315 315 316 316 317 318 319 321 322 323 323 323 323 323 323 323 323 322 322 322 321 320 320 319 318 316 314 313 312 310 309 309 308 308 309 309 308 307 306 306 306 305 304 303 304 304 302 301 300 300 301 302 304 305 306 308 309 309 308 308 308 308
289 292 295 298 301 304 305 307 309 310 310 310 309 307 307 308 309 310 311 312 313 314 315 315 316 317 318 319 320 321 323 324 324 325 325 325 325 325 325 324 324 324 323 322 322 321 321 320 318 316 314 313 312 311 310 310 310 310 310 308 307 306 306 306 306 306 306 306 306 304 302 301 302 303 304 305 307 308 309 309 309 308 307 308 309
289 292 295 298 301 303 304 306 308 309 308 307 306 305 306 307 309 310 311 312 313 314 314 315 317 318 319 320 321 323 324 325 326 326 327 327 327 327 327 326 326 325 325 324 323 323 322 322 320 318 316 315 313 313 312 312 312 311 310 309 308 307 307 306 307 307 308 308 308 306 305 304 303 304 305 306 307 309 309 310 309 307 307 307 308
289 292 295 298 301 302 304 306 307 307 306 305 304 304 306 308 309 310 311 312 313 314 315 316 317 319 320 322 323 324 326 327 328 328 329 329 329 329 328 328 327 327 326 326 325 324 324 323 323 321 319 317 315 315 314 314 313 312 311 310 308 307 306 306 306 307 309 310 309 308 307 306 305 304 305 306 307 309 310 309 308 306 306 306 308
289 292 295 299 301 303 305 306 307 306 305 304 304 305 307 308 310 310 311 312 314 315 316 317 318 320 321 323 324 326 328 329 330 331 331 331 331 331 330 329 329 328 328 327 326 325 325 325 325 323 322 321 319 318 317 316 315 313 311 310 309 308 306 305 305 307 308 310 311 311 310 309 307 306 306 307 308 310 311 311 308 306 306 307 309
289 293 296 299 301 303 305 306 305 305 303 303 304 306 308 309 310 311 312 314 315 316 317 318 320 321 323 324 326 328 330 331 332 333 333 334 333 333 332 331 331 330 330 329 327 326 326 326 326 325 325 324 323 322 321 320 318 315 312 310 309 308 307 305 305 306 308 310 312 314 314 313 311 309 308 310 311 312 313 313 310 308 308 309 311
290 293 296 298 301 302 304 304 304 303 302 303 304 306 307 308 309 311 312 314 315 316 318 319 320 322 324 326 328 330 332 333 334 335 336 336 336 335 334 333 333 332 331 330 328 326 326 327 327 326 326 326 326 325 325 323 321 317 314 312 310 308 307 305 304 305 306 308 311 314 316 316 313 311 310 311 312 314 315 315 312 311 311 311 312
291 293 295 298 300 302 303 303 302 301 301 302 304 306 307 307 309 311 312 313 315 316 318 319 321 323 326 329 330 332 333 335 336 337 338 338 338 337 336 335 335 334 333 331 329 327 327 327 327 326 326 326 326 326 326 325 323 320 318 315 312 310 308 306 304 304 304 306 309 313 316 316 314 312 312 313 315 317 318 317 315 314 313 313 314
290 292 294 297 300 301 302 301 300 299 301 303 304 305 306 307 309 311 312 313 314 316 317 319 322 325 328 330 332 334 335 337 338 339 340 340 340 339 338 337 336 336 335 333 330 328 327 327 327 327 327 326 326 327 327 326 324 323 321 319 316 314 311 308 306 305 304 305 308 312 315 316 316 315 315 315 317 319 320 319 318 317 316 316 317
289 291 295 297 299 301 301 300 299 299 301 303 304 305 306 307 309 311 313 313 314 316 318 321 324 327 329 332 334 335 337 338 340 341 342 342 342 341 340 339 338 338 336 334 331 329 328 328 327 327 327 327 326 327 327 326 325 324 323 322 320 318 314 310 308 306 305 306 307 311 314 316 316 316 315 316 317 319 319 320 320 318 317 318 319
288 292 295 298 300 300 300 299 298 299 301 302 303 304 305 308 310 311 312 312 314 316 319 322 325 328 331 333 335 337 338 340 341 343 344 345 344 343 342 340 340 339 338 336 333 330 329 328 328 327 327 327 326 326 326 326 325 325 325 324 323 321 318 314 310 308 307 306 307 309 312 314 315 315 314 315 316 318 319 321 322 321 319 319 320
Height
3112 3112 3112 3111 3110 3109 3109 3108 3107 3106 3105 3104 3103 3102 3100 3099 3097 3096 3094 3092 3090 3088 3086 3085 3083 3081 3079 3077 3075 3073 3071 3069 3067 3065 3062 3059 3057 3054 3052 3049 3046 3043 3040 3037 3034 3031 3028 3025 3022 3019 3016 3012 3009 3005 3002 2999 2995 2993 2990 2986 2983 2980 2974 2969 2960 2955 2963 2966 2960 2959 2958 2948 2943 2948 2947 2944 2948 2948 2946 2948 2948 2946 2947 2949 2950
3109 3108 3108 3107 3107 3106 3105 3104 3103 3102 3101 3100 3099 3098 3096 3095 3093 3091 3089 3087 3086 3084 3082 3080 3078 3076 3074 3072 3070 3068 3065 3063 3061 3058 3056 3053 3050 3048 3045 3042 3039 3037 3034 3031 3028 3025 3021 3018 3014 3011 3008 3004 3001 2996 2992 2989 2986 2982 2981 2977 2973 2972 2967 2961 2955 2948 2947 2953 2953 2950 2950 2944 2934 2933 2934 2930 2931 2935 2934 2933 2935 2934 2933 2935 2936
3106 3105 3105 3104 3104 3103 3102 3101 3100 3099 3098 3097 3095 3094 3092 3090 3088 3087 3085 3083 3082 3080 3078 3076 3074 3071 3069 3067 3064 3062 3059 3056 3054 3051 3048 3046 3043 3040 3037 3035 3032 3029 3026 3023 3020 3017 3014 3010 3007 3003 2999 2996 2993 2989 2984 2981 2978 2973 2972 2969 2964 2962 2960 2954 2949 2943 2937 2938 2942 2941 2939 2938 2931 2924 2922 2919 2918 2919 2919 2919 2920 2921 2922 2922 2922
3103 3102 3102 3101 3101 3100 3099 3098 3096 3095 3094 3092 3090 3089 3087 3086 3084 3083 3081 3080 3078 3076 3073 3071 3069 3066 3064 3061 3058 3055 3052 3049 3046 3044 3041 3038 3035 3033 3030 3027 3024 3021 3018 3015 3012 3009 3005 3002 2998 2994 2991 2988 2984 2981 2977 2974 2970 2966 2963 2961 2958 2953 2952 2948 2943 2938 2932 2928 2931 2932 2929 2927 2925 2919 2913 2910 2908 2907 2907 2906 2906 2907 2909 2910 2910
3100 3099 3099 3098 3097 3096 3095 3094 3092 3091 3089 3088 3086 3085 3083 3082 3080 3079 3077 3075 3073 3071 3068 3066 3063 3060 3057 3054 3051 3048 3045 3042 3039 3036 3034 3031 3028 3025 3022 3019 3016 3013 3010 3007 3003 3000 2997 2993 2990 2987 2983 2981 2977 2973 2971 2967 2963 2960 2956 2953 2951 2947 2943 2941 2937 2933 2928 2923 2921 2922 2921 2918 2916 2913 2908 2902 2899 2898 2897 2895 2894 2894 2896 2897 2897
3097 3096 3095 3094 3093 3092 3091 3090 3088 3087 3085 3084 3083 3081 3080 3078 3076 3074 3072 3070 3068 3065 3062 3060 3057 3054 3051 3048 3045 3042 3038 3035 3033 3030 3027 3024 3021 3018 3015 3011 3008 3005 3002 2999 2996 2993 2989 2986 2983 2980 2976 2974 2971 2966 2963 2960 2956 2953 2951 2947 2943 2940 2937 2934 2931 2927 2923 2919 2915 2913 2913 2911 2907 2905 2903 2897 2891 2890 2887 2884 2884 2885 2884 2883 2884
3094 3093 3092 3090 3089 3088 3087 3086 3084 3083 3082 3080 3079 3078 3076 3074 3071 3069 3067 3064 3062 3059 3056 3054 3051 3048 3045 3042 3038 3035 3032 3029 3026 3023 3020 3017 3014 3011 3008 3004 3001 2998 2995 2992 2989 2986 2983 2980 2976 2974 2970 2967 2964 2960 2956 2953 2950 2947 2944 2941 2937 2934 2931 2927 2925 2921 2917 2913 2910 2907 2905 2904 2901 2898 2895 2892 2887 2884 2880 2875 2873 2875 2875 2872 2872
3090 3089 3088 3087 3086 3084 3083 3082 3080 3079 3078 3077 3075 3073 3071 3068 3066 3063 3061 3059 3056 3053 3050 3048 3045 3042 3038 3035 3032 3029 3025 3022 3019 3016 3013 3010 3007 3004 3000 2997 2994 2991 2989 2986 2983 2980 2977 2974 2971 2968 2965 2962 2958 2954 2950 2946 2944 2941 2939 2935 2931 2928 2925 2922 2919 2915 2912 2908 2905 2902 2899 2897 2896 2892 2889 2886 2881 2877 2875 2871 2865 2865 2865 2863 2863
3087 3086 3085 3083 3082 3080 3079 3078 3076 3075 3074 3072 3070 3068 3065 3063 3060 3058 3056 3053 3050 3047 3045 3042 3039 3036 3032 3029 3026 3023 3019 3016 3013 3010 3007 3004 3000 2997 2993 2990 2987 2984 2982 2979 2976 2974 2971 2968 2966 2963 2960 2957 2954 2949 2945 2942 2938 2935 2933 2930 2927 2923 2920 2917 2914 2910 2907 2903 2900 2898 2895 2892 2890 2887 2883 2881 2876 2870 2868 2866 2861 2859 2858 2855 2855
3083 3082 3081 3079 3078 3076 3075 3073 3072 3071 3069 3067 3065 3062 3060 3057 3055 3053 3051 3048 3045 3042 3039 3036 3033 3030 3027 3024 3021 3017 3014 3011 3007 3004 3000 2996 2993 2989 2986 2983 2980 2977 2975 2973 2970 2968 2965 2962 2960 2957 2954 2951 2948 2945 2941 2938 2934 2931 2928 2925 2922 2919 2915 2912 2909 2905 2901 2898 2896 2894 2890 2887 2886 2883 2879 2876 2872 2866 2863 2860 2856 2854 2852 2848 2848
3079 3077 3076 3074 3073 3071 3070 3068 3067 3066 3064 3062 3059 3057 3054 3052 3050 3048 3046 3043 3040 3037 3034 3031 3028 3025 3022 3018 3015 3012 3008 3005 3001 2998 2994 2990 2987 2983 2980 2977 2975 2972 2969 2967 2964 2961 2959 2956 2953 2950 2947 2944 2941 2939 2935 2932 2930 2927 2924 2922 2919 2915 2911 2907 2903 2900 2897 2894 2892 2890 2886 2882 2880 2879 2875 2871 2867 2862 2859 2856 2852 2848 2846 2842 2839
3074 3073 3071 3069 3068 3067 3065 3064 3063 3061 3059 3057 3054 3052 3050 3048 3046 3043 3041 3038 3035 3032 3029 3026 3023 3019 3016 3012 3009 3006 3002 2998 2995 2992 2989 2985 2981 2978 2975 2972 2970 2967 2964 2961 2958 2955 2952 2950 2947 2943 2940 2937 2934 2932 2929 2926 2924 2921 2919 2917 2915 2911 2908 2903 2899 2896 2892 2889 2887 2885 2882 2877 2875 2874 2871 2865 2861 2858 2854 2852 2849 2845 2842 2839 2835
3069 3068 3067 3065 3064 3062 3061 3060 3058 3056 3054 3051 3049 3047 3045 3043 3040 3038 3036 3033 3030 3027 3023 3020 3017 3013 3010 3006 3003 3000 2996 2993 2989 2986 2983 2980 2977 2973 2970 2968 2964 2961 2959 2956 2953 2949 2946 2943 2941 2938 2934 2931 2928 2925 2922 2919 2917 2915 2913 2911 2908 2906 2903 2899 2896 2893 2889 2885 2881 2879 2877 2874 2870 2868 2866 2861 2855 2852 2849 2847 2846 2842 2837 2836 2833
3065 3063 3062 3060 3059 3058 3056 3055 3053 3051 3049 3047 3045 3043 3040 3037 3035 3032 3029 3027 3023 3020 3017 3014 3011 3008 3004 3000 2997 2994 2990 2987 2984 2981 2978 2975 2972 2968 2965 2962 2959 2956 2953 2950 2947 2944 2941 2937 2935 2932 2929 2925 2921 2918 2915 2912 2910 2908 2906 2904 2901 2899 2896 2893 2891 2889 2885 2881 2877 2874 2873 2870 2865 2862 2861 2857 2851 2847 2844 2841 2840 2837 2833 2832 2831
3060 3058 3057 3055 3054 3053 3051 3050 3048 3046 3044 3042 3040 3037 3034 3031 3029 3026 3023 3020 3017 3015 3012 3008 3005 3002 2998 2994 2992 2989 2985 2982 2979 2976 2973 2969 2966 2963 2959 2956 2954 2951 2948 2945 2942 2939 2936 2933 2929 2926 2923 2920 2916 2913 2909 2906 2903 2901 2899 2897 2895 2892 2889 2886 2885 2882 2879 2876 2872 2870 2868 2865 2861 2857 2855 2853 2848 2844 2840 2838 2835 2832 2828 2827 2827
3055 3054 3053 3051 3050 3048 3047 3045 3043 3041 3039 3037 3034 3032 3028 3025 3023 3020 3018 3015 3012 3009 3006 3002 2999 2996 2992 2989 2986 2984 2980 2977 2973 2970 2967 2963 2960 2957 2954 2951 2949 2947 2943 2940 2937 2933 2930 2927 2924 2921 2918 2915 2912 2908 2904 2900 2897 2894 2892 2891 2888 2885 2883 2881 2880 2876 2872 2870 2868 2866 2863 2860 2857 2854 2851 2848 2843 2839 2836 2834 2832 2828 2823 2822 2821
3051 3049 3049 3047 3045 3044 3042 3040 3038 3036 3034 3031 3029 3026 3023 3020 3017 3015 3012 3010 3007 3003 3000 2997 2993 2990 2987 2983 2980 2978 2975 2971 2968 2964 2961 2957 2954 2951 2949 2946 2944 2941 2938 2934 2931 2928 2925 2922 2918 2916 2913 2910 2906 2903 2899 2895 2891 2888 2886 2884 2881 2880 2878 2875 2873 2869 2866 2865 2863 2861 2858 2855 2853 2850 2847 2843 2839 2835 2831 2829 2828 2824 2820 2817 2815
3046 3045 3044 3042 3040 3039 3037 3035 3033 3031 3028 3026 3023 3020 3018 3015 3012 3010 3007 3004 3001 2998 2994 2991 2987 2984 2981 2978 2974 2972 2969 2966 2962 2959 2956 2952 2949 2946 2943 2941 2938 2935 2932 2929 2926 2922 2920 2917 2913 2910 2907 2905 2901 2898 2894 2890 2886 2882 2879 2877 2875 2873 2871 2867 2864 2861 2860 2859 2858 2855 2853 2850 2848 2845 2842 2839 2835 2831 2826 2823 2822 2820 2816 2813 2810
3042 3041 3040 3037 3035 3034 3032 3030 3028 3025 3022 3020 3018 3015 3012 3010 3007 3005 3002 2998 2995 2992 2988 2985 2982 2979 2976 2973 2969 2966 2963 2961 2957 2954 2951 2947 2943 2940 2937 2935 2932 2929 2926 2923 2920 2917 2914 2912 2908 2905 2902 2899 2896 2893 2889 2885 2881 2876 2873 2871 2868 2866 2863 2860 2856 2853 2852 2851 2849 2847 2846 2844 2841 2838 2836 2833 2830 2826 2822 2818 2815 2813 2811 2808 2805
3038 3037 3035 3033 3031 3029 3027 3024 3022 3019 3017 3015 3013 3010 3008 3005 3002 2999 2996 2992 2989 2986 2982 2979 2976 2973 2970 2967 2964 2960 2958 2956 2953 2949 2946 2942 2938 2934 2932 2929 2926 2923 2921 2917 2914 2911 2908 2905 2903 2899 2896 2893 2890 2887 2884 2881 2876 2871 2868 2866 2862 2859 2856 2852 2848 2847 2845 2843 2840 2839 2837 2835 2833 2831 2829 2826 2823 2820 2817 2813 2810 2807 2804 2803 2801
3034 3032 3030 3028 3026 3024 3022 3019 3017 3014 3012 3010 3008 3005 3003 3000 2997 2993 2990 2986 2983 2980 2977 2974 2970 2968 2965 2961 2958 2956 2953 2950 2948 2945 2941 2937 2933 2929 2926 2923 2920 2917 2915 2912 2908 2905 2902 2899 2896 2893 2890 2887 2885 2882 2878 2875 2871 2867 2864 2861 2857 2853 2849 2845 2842 2840 2838 2835 2833 2832 2830 2827 2826 2824 2821 2819 2817 2814 2811 2808 2805 2802 2799 2796 2795
3029 3027 3025 3023 3021 3019 3017 3014 3012 3009 3007 3005 3003 3000 2997 2994 2991 2987 2984 2980 2977 2975 2971 2968 2965 2962 2959 2956 2953 2951 2948 2945 2943 2940 2937 2933 2929 2925 2921 2918 2915 2911 2908 2906 2902 2899 2896 2893 2890 2887 2884 2881 2879 2876 2872 2869 2865 2862 2859 2855 2852 2848 2843 2839 2836 2834 2831 2829 2827 2825 2823 2821 2819 2817 2814 2812 2810 2807 2805 2803 2800 2797 2794 2791 2788
3024 3022 3020 3018 3016 3014 3011 3009 3007 3005 3002 3000 2997 2994 2992 2988 2985 2981 2978 2974 2972 2969 2966 2963 2960 2957 2954 2952 2949 2946 2944 2941 2938 2935 2932 2928 2925 2921 2917 2914 2910 2906 2902 2899 2896 2893 2890 2886 2883 2881 2879 2876 2873 2870 2866 2862 2858 2855 2852 2849 2845 2841 2838 2834 2831 2827 2824 2822 2820 2818 2816 2814 2812 2810 2808 2805 2803 2801 2798 2796 2794 2791 2788 2786 2783
3019 3017 3015 3013 3010 3008 3006 3004 3002 3000 2997 2994 2992 2989 2986 2982 2979 2976 2972 2969 2966 2964 2961 2957 2954 2951 2949 2947 2944 2941 2939 2936 2933 2929 2926 2923 2920 2917 2913 2910 2906 2902 2898 2894 2891 2888 2884 2881 2878 2875 2873 2870 2867 2863 2859 2855 2852 2849 2846 2842 2839 2835 2831 2828 2824 2821 2818 2816 2813 2811 2809 2807 2805 2802 2800 2798 2796 2794 2792 2790 2788 2785 2782 2780 2778
3013 3011 3009 3007 3005 3003 3001 2999 2997 2994 2992 2989 2986 2983 2980 2977 2974 2970 2967 2964 2961 2958 2955 2952 2949 2946 2943 2941 2939 2936 2933 2930 2927 2924 2921 2918 2915 2912 2909 2905 2901 2897 2893 2889 2886 2882 2877 2874 2871 2869 2867 2863 2859 2856 2852 2849 2845 2842 2838 2835 2831 2828 2824 2820 2817 2814 2811 2808 2806 2804 2802 2800 2798 2796 2794 2792 2789 2787 2785 2783 2781 2779 2776 2774 2772
3008 3006 3004 3002 3000 2998 2996 2994 2991 2989 2986 2983 2980 2977 2974 2971 2968 2965 2962 2959 2956 2953 2950 2947 2943 2940 2937 2935 2933 2930 2927 2924 2922 2919 2916 2912 2910 2906 2903 2899 2895 2891 2886 2882 2878 2874 2870 2867 2865 2862 2858 2854 2851 2847 2844 2841 2837 2833 2830 2827 2823 2820 2816 2813 2809 2806 2804 2801 2799 2797 2796 2794 2792 2790 2787 2785 2783 2781 2778 2776 2774 2772 2770 2767 2766
3002 3001 2999 2997 2995 2993 2991 2989 2986 2983 2981 2978 2975 2971 2968 2965 2963 2960 2957 2953 2950 2948 2944 2941 2938 2935 2932 2930 2927 2924 2922 2919 2916 2914 2910 2906 2903 2899 2895 2891 2887 2882 2878 2874 2870 2866 2864 2861 2857 2853 2849 2846 2843 2839 2836 2833 2829 2826 2823 2820 2817 2814 2810 2807 2803 2800 2797 2794 2792 2790 2789 2787 2785 2783 2781 2779 2777 2775 2772 2769 2766 2765 2763 2760 2758
2997 2996 2994 2992 2990 2988 2985 2983 2981 2978 2975 2972 2969 2966 2963 2960 2957 2955 2951 2948 2945 2942 2939 2936 2933 2930 2927 2924 2922 2919 2917 2914 2910 2907 2903 2899 2895 2891 2887 2883 2879 2875 2871 2867 2863 2860 2858 2855 2851 2847 2843 2840 2836 2833 2830 2827 2823 2820 2817 2814 2811 2808 2805 2802 2798 2794 2791 2788 2786 2784 2782 2780 2778 2776 2774 2773 2771 2769 2766 2763 2760 2758 2756 2754 2751
2992 2991 2989 2986 2984 2982 2980 2978 2975 2973 2970 2967 2964 2961 2958 2955 2952 2949 2946 2943 2940 2937 2934 2931 2928 2925 2922 2919 2916 2913 2911 2909 2905 2901 2897 2893 2889 2885 2881 2877 2873 2869 2866 2861 2856 2854 2852 2848 2844 2841 2837 2833 2829 2826 2823 2820 2817 2814 2811 2807 2804 2802 2799 2796 2792 2789 2786 2783 2781 2778 2776 2774 2773 2771 2768 2767 2765 2764 2761 2758 2755 2752 2750 2748 2746
2987 2985 2983 2981 2978 2976 2974 2972 2970 2967 2965 2962 2959 2956 2953 2950 2947 2944 2941 2938 2935 2932 2929 2927 2924 2920 2917 2914 2910 2906 2902 2901 2899 2896 2892 2889 2885 2880 2877 2873 2868 2864 2860 2855 2851 2848 2845 2841 2837 2834 2830 2826 2822 2818 2814 2811 2808 2806 2803 2800 2797 2795 2792 2789 2786 2783 2780 2778 2775 2773 2770 2768 2767 2765 2763 2761 2759 2758 2756 2753 2750 2747 2744 2742 2740
2981 2979 2977 2975 2973 2971 2969 2967 2965 2962 2959 2956 2954 2951 2948 2945 2941 2938 2935 2933 2931 2928 2925 2922 2919 2915 2911 2908 2905 2902 2898 2895 2892 2890 2887 2884 2880 2875 2871 2867 2862 2858 2854 2849 2844 2841 2837 2833 2829 2826 2822 2818 2814 2810 2806 2803 2800 2797 2794 2792 2790 2788 2785 2782 2779 2776 2774 2772 2770 2767 2765 2763 2761 2759 2757 2755 2753 2752 2751 2748 2745 2742 2740 2737 2735
2975 2974 2972 2969 2968 2966 2964 2962 2959 2956 2954 2951 2948 2945 2943 2940 2937 2933 2930 2927 2925 2923 2920 2917 2914 2911 2907 2903 2900 2897 2894 2891 2888 2885 2881 2878 2874 2870 2865 2860 2856 2852 2848 2842 2838 2834 2830 2825 2821 2818 2814 2810 2806 2803 2799 2795 2792 2789 2786 2784 2783 2781 2778 2775 2772 2770 2767 2765 2763 2762 2760 2757 2755 2754 2752 2749 2747 2746 2744 2742 2740 2737 2735 2733 2731
2970 2968 2966 2964 2962 2961 2959 2956 2954 2951 2948 2945 2942 2939 2937 2934 2932 2930 2927 2923 2921 2919 2916 2913 2910 2907 2903 2900 2896 2892 2889 2886 2883 2879 2875 2871 2868 2863 2859 2854 2850 2846 2841 2836 2831 2827 2823 2818 2814 2810 2806 2802 2798 2795 2792 2788 2785 2782 2779 2777 2775 2774 2772 2769 2766 2764 2762 2760 2757 2756 2754 2752 2750 2748 2746 2745 2743 2740 2738 2736 2734 2732 2730 2728 2726
2964 2963 2961 2959 2957 2955 2953 2951 2948 2945 2942 2939 2937 2934 2931 2928 2926 2924 2922 2920 2918 2915 2913 2910 2906 2903 2900 2896 2892 2888 2885 2881 2877 2873 2869 2865 2861 2856 2852 2848 2844 2839 2834 2829 2824 2820 2815 2811 2807 2803 2799 2795 2791 2787 2784 2781 2778 2776 2773 2771 2769 2767 2765 2763 2761 2758 2756 2754 2753 2751 2749 2747 2745 2743 2741 2739 2738 2736 2734 2732 2729 2727 2725 2723 2722
2959 2957 2956 2954 2952 2950 2948 2945 2942 2940 2937 2934 2931 2928 2926 2923 2921 2918 2917 2915 2913 2912 2909 2906 2902 2899 2896 2892 2888 2883 2879 2875 2871 2867 2863 2858 2853 2849 2844 2840 2837 2833 2828 2823 2818 2813 2809 2805 2801 2797 2792 2788 2784 2780 2777 2774 2772 2769 2767 2765 2763 2761 2759 2757 2755 2753 2751 2749 2748 2746 2744 2742 2741 2738 2736 2734 2733 2731 2729 2727 2725 2722 2721 2719 2717
2954 2952 2950 2949 2947 2945 2942 2940 2937 2934 2932 2929 2926 2923 2920 2918 2915 2913 2911 2909 2907 2905 2903 2901 2897 2894 2890 2886 2882 2878 2874 2870 2866 2861 2857 2852 2847 2842 2837 2832 2828 2824 2820 2816 2811 2806 2802 2797 2793 2790 2785 2781 2777 2774 2770 2768 2765 2763 2761 2759 2757 2755 2753 2752 2750 2748 2746 2744 2743 2741 2739 2738 2736 2734 2732 2730 2728 2726 2724 2722 2720 2718 2717 2715 2713
2948 2947 2945 2943 2941 2939 2937 2934 2932 2929 2926 2923 2921 2918 2915 2913 2910 2908 2906 2904 2901 2899 2897 2894 2892 2888 2884 2880 2876 2872 2869 2865 2861 2856 2851 2846 2841 2836 2831 2826 2821 2817 2812 2808 2803 2799 2795 2791 2786 2782 2778 2775 2771 2768 2765 2762 2760 2758 2756 2754 2752 2750 2748 2746 2744 2742 2741 2739 2738 2737 2735 2733 2732 2730 2728 2726 2724 2722 2720 2718 2716 2715 2713 2712 2710
2943 2941 2939 2938 2936 2934 2931 2929 2926 2924 2921 2918 2915 2913 2910 2908 2906 2903 2901 2898 2896 2893 2891 2888 2885 2882 2879 2875 2871 2867 2863 2860 2855 2851 2846 2841 2836 2831 2825 2820 2815 2810 2805 2801 2796 2792 2788 2784 2780 2776 2772 2768 2765 2762 2759 2757 2754 2753 2751 2749 2748 2746 2744 2742 2740 2738 2736 2735 2734 2732 2731 2729 2728 2726 2724 2722 2720 2718 2716 2715 2713 2711 2710 2709 2707
2937 2935 2934 2932 2930 2928 2926 2923 2921 2918 2915 2913 2910 2908 2906 2903 2901 2898 2896 2893 2891 2888 2886 2883 2880 2876 2872 2869 2865 2861 2857 2854 2849 2845 2841 2835 2830 2824 2819 2813 2808 2803 2799 2794 2790 2785 2781 2778 2774 2770 2766 2763 2760 2757 2754 2752 2750 2748 2746 2745 2743 2741 2740 2738 2736 2734 2732 2731 2730 2728 2727 2725 2724 2722 2721 2719 2717 2714 2713 2711 2709 2707 2706 2705 2703
2931 2930 2928 2927 2925 2922 2920 2917 2915 2912 2910 2907 2905 2903 2900 2898 2896 2893 2891 2888 2886 2883 2880 2878 2874 2871 2867 2863 2859 2855 2852 2848 2843 2839 2834 2829 2824 2818 2813 2807 2802 2797 2792 2788 2784 2780 2776 2772 2768 2765 2761 2758 2755 2752 2750 2747 2745 2743 2742 2740 2739 2737 2736 2734 2732 2730 2728 2727 2726 2725 2723 2721 2720 2719 2718 2716 2714 2711 2709 2708 2706 2704 2703 2701 2700
2926 2924 2923 2921 2919 2917 2914 2912 2909 2907 2904 2902 2900 2898 2895 2893 2891 2888 2886 2883 2881 2878 2876 2872 2869 2866 2862 2858 2854 2850 2846 2842 2838 2833 2828 2823 2818 2813 2807 2801 2796 2791 2786 2782 2778 2774 2771 2767 2763 2759 2756 2753 2750 2748 2745 2743 2741 2739 2738 2737 2735 2733 2732 2730 2728 2726 2725 2724 2723 2721 2720 2718 2717 2715 2714 2713 2711 2709 2707 2705 2703 2701 2700 2699 2697
2920 2919 2917 2915 2913 2911 2909 2906 2904 2902 2900 2897 2895 2893 2891 2888 2886 2884 2881 2879 2876 2874 2871 2868 2864 2861 2857 2853 2849 2845 2841 2837 2832 2828 2823 2818 2813 2807 2802 2796 2791 2786 2781 2777 2772 2768 2765 2762 2759 2755 2751 2748 2746 2744 2741 2739 2737 2736 2734 2733 2731 2730 2728 2727 2725 2723 2722 2721 2720 2718 2716 2715 2714 2712 2711 2709 2708 2706 2704 2702 2701 2699 2697 2696 2695
2915 2913 2912 2910 2908 2906 2904 2901 2899 2897 2895 2893 2891 2888 2886 2884 2881 2879 2877 2874 2871 2869 2866 2863 2860 2856 2852 2848 2845 2841 2837 2832 2828 2823 2818 2813 2808 2802 2797 2792 2787 2782 2777 2772 2768 2764 2760 2757 2754 2751 2748 2744 2742 2739 2737 2735 2733 2732 2730 2729 2728 2727 2725 2723 2722 2721 2719 2718 2717 2715 2714 2712 2711 2710 2708 2707 2705 2703 2702 2700 2698 2697 2695 2694 2693
2909 2908 2906 2904 2902 2900 2898 2896 2894 2892 2890 2888 2886 2884 2881 2879 2877 2874 2872 2870 2867 2864 2861 2858 2855 2852 2848 2844 2840 2836 2832 2828 2823 2818 2814 2809 2803 2798 2793 2788 2783 2778 2774 2769 2764 2760 2756 2753 2750 2747 2744 2741 2739 2736 2734 2732 2730 2728 2726 2725 2724 2723 2722 2720 2719 2717 2716 2715 2714 2712 2711 2710 2708 2707 2706 2704 2703 2701 2699 2698 2696 2694 2693 2692 2691
2903 2902 2900 2899 2897 2895 2893 2891 2889 2887 2885 2883 2881 2878 2876 2874 2872 2869 2867 2864 2862 2859 2856 2853 2850 2847 2844 2841 2837 2832 2828 2823 2819 2814 2809 2804 2799 2794 2788 2784 2779 2774 2770 2765 2761 2757 2753 2750 2747 2744 2741 2739 2736 2734 2731 2729 2727 2725 2723 2721 2720 2720 2718 2717 2716 2714 2713 2712 2711 2710 2708 2707 2706 2705 2703 2702 2700 2699 2697 2695 2693 2692 2691 2690 2689
2898 2896 2895 2893 2891 2889 2888 2886 2884 2882 2880 2878 2875 2873 2871 2869 2867 2865 2862 2859 2857 2854 2851 2849 2846 2843 2840 2836 2832 2828 2824 2819 2815 2810 2805 2800 2795 2789 2784 2780 2775 2770 2766 2762 2757 2754 2750 2747 2744 2741 2738 2736 2734 2731 2729 2727 2725 2723 2721 2719 2717 2716 2715 2714 2712 2711 2710 2709 2708 2707 2706 2705 2704 2702 2701 2700 2698 2697 2695 2693 2691 2690 2689 2688 2687
2892 2891 2889 2887 2886 2884 2882 2881 2879 2877 2875 2873 2871 2869 2866 2864 2862 2860 2857 2855 2852 2850 2847 2844 2842 2839 2835 2832 2828 2824 2820 2815 2811 2806 2801 2796 2791 2786 2781 2776 2772 2767 2763 2759 2754 2751 2748 2744 2741 2739 2736 2733 2731 2729 2727 2724 2722 2720 2718 2716 2715 2714 2712 2711 2710 2709 2708 2706 2705 2704 2703 2702 2701 2700 2699 2697 2696 2695 2693 2692 2690 2688 2687 2686 2685
2887 2885 2884 2882 2881 2879 2877 2876 2874 2872 2870 2868 2866 2864 2862 2860 2858 2856 2853 2851 2848 2846 2843 2841 2838 2835 2831 2828 2824 2820 2816 2811 2807 2802 2797 2792 2787 2782 2777 2773 2768 2764 2760 2756 2752 2748 2745 2742 2739 2736 2734 2731 2729 2727 2725 2723 2720 2718 2716 2714 2713 2711 2710 2709 2707 2706 2705 2704 2703 2702 2701 2700 2699 2698 2697 2695 2694 2693 2691 2690 2688 2687 2686 2685 2684
2881 2880 2878 2877 2875 2874 2872 2870 2868 2867 2865 2863 2861 2859 2858 2855 2853 2851 2849 2846 2844 2842 2840 2837 2834 2831 2827 2823 2820 2816 2812 2807 2803 2798 2794 2789 2784 2779 2774 2770 2765 2761 2757 2753 2749 2746 2743 2740 2737 2734 2731 2729 2727 2725 2723 2720 2718 2716 2714 2712 2711 2709 2708 2706 2705 2703 2702 2702 2701 2700 2699 2698 2697 2696 2695 2693 2692 2691 2690 2688 2687 2686 2684 2684 2683
2876 2874 2873 2871 2870 2868 2866 2865 2863 2861 2860 2858 2856 2855 2853 2851 2849 2846 2844 2842 2840 2838 2836 2833 2830 2827 2823 2820 2816 2812 2808 2804 2799 2795 2790 2785 2781 2776 2772 2767 2763 2758 2754 2750 2747 2743 2740 2737 2735 2732 2729 2727 2725 2722 2720 2718 2716 2714 2712 2710 2709 2707 2706 2704 2703 2701 2700 2699 2699 2698 2697 2696 2695 2694 2693 2692 2691 2690 2688 2687 2685 2684 2683 2682 2682
2870 2868 2867 2866 2864 2863 2861 2859 2858 2856 2855 2853 2852 2850 2848 2846 2844 2842 2840 2838 2836 2834 2832 2829 2826 2823 2819 2816 2812 2809 2805 2801 2796 2792 2787 2782 2778 2773 2769 2765 2760 2756 2752 2748 2744 2741 2738 2735 2732 2730 2727 2725 2723 2721 2719 2717 2714 2712 2710 2709 2707 2706 2704 2703 2701 2700 2699 2698 2697 2696 2695 2694 2694 2692 2692 2691 2689 2688 2687 2686 2684 2683 2682 2681 2681